星链-4134 (STARLINK-4134 )

导读

STARLINK-4134是美国SpaceX星链计划中的卫星,于2022年7月24日发射升空,归属发射国家美国。星链项目旨在构建全球卫星互联网星座,为全球各地提供高速互联网服务,该卫星加入星座后,进一步拓展了星链网络的覆盖范围与服务能力,助力星链星座完成组网部署,推动天基互联网服务的落地应用。

Basic Information
目录编号:
53254
目录名称:
STARLINK-4134
国际标识:
2022-086N
轨道中心:
EARTH
卫星名称:
星链-4134
卫星全名:
星链-4134 (STARLINK-4134 )
卫星状态:
在轨 (已飞行1424 天)
发射日期:
2022-07-24 UTC
国别 :
美国 (US)
星等 :
--
Orbit Information
数据来源 国际轨道数据 AOE轨道数据
星历时间 2026-06-17T11:11:53+0800
10小时前
查看轨道信息
2026-06-14T03:00:00+0800
3天前
查看轨道信息
半长轴 6917.915km 6917.873km
偏心率 0.0001447 0.0000559
轨道倾角 53.162° 53.164°
近地点辐角 95.290° 127.662°
升交点赤经 107.619° 122.637°
平近点角 264.826° 71.699°
近地点 538.776km 539.349km
远地点 540.78km 540.123km
周期 95.438分钟 95.437分钟
每日圈数 15.08829 15.088426
Detailed Information
固有亮度:
5
最大亮度:
2.5
卫星平台:
Starlink v1.5
覆盖范围:
全球
运营商:
太空探索技术公司
运营商所在国:
美国
制造商(研发单位):
太空探索技术公司
制造商所在国:
美国
使用方式:
暂无
Satellite Introduction
星链(Starlink)计划是由太空探索技术公司(SpaceX)提出的一个巨型低轨卫星互联网星座项目,计划在2019年至2024年间在太空搭建由约1.2万颗卫星组成的“星链”网络,其中1584颗将部署在地球上空550千米处的近地轨道,并从2020年开始工作。该卫星仍在工作。
2D Orbit Map
3D Orbit Map
Orbit Altitude Analysis Chart
Orbit Inclination Analysis Chart
Orbit Comprehensive Analysis Chart
View Comprehensive Chart